カタログに戻る

STARLINK-11718

運用中通信VLEO
NORAD 64132·PAYLOAD·🇺🇸 United States

打ち上げ May 24, 2025 から Cape Canaveral Space Force Station

Loading…

次のパス (今後24時間)

TLE

最新Source: CelesTrak SupGP

元期: Sep 15, 2026, 02:14 UTC

1 64132C 25111K   26258.09354167  .00054830  00000+0  42570-3 0  2582
2 64132  43.0005 272.5110 0001375 267.3561  96.2189 15.70821011    16

AllMySatでSTARLINK-11718をリアルタイム追跡

Download on the App Store